Погода в Катунине

Россия / Архангельская область     64°23′28″N   40°37′41″E
темп.,
°C
ветер,
м/с
пор.,
м/с
влажн.,
%
обл.,
%
осадки,
мм/ч
давл.,
гПа
погр.,
м
31 июля, сб
сб3100:00+14юв3899100 1.1 997262
03:00+12ююв249924 1.3 99673
06:00+14ююз269335 0.0 996182
09:00+19юз3567100 0.2 995599
12:00+20зюз2568100 1.9 9951039
15:00+21з355230 1.9 994953
18:00+21ссз335284 0.0 994592
21:00+15сз258291 0.0 995142
1 августа, вс
вс100:00+11зсз2597100 0.0 996127
03:00+10зсз23975 0.0 99860
06:00+13з248371 0.0 999220
09:00+18з23628 0.0 1000716
12:00+21з245446 0.2 10001385
15:00+20зюз237213 1.8 1000959
18:00+20юз13727 1.7 1000623
21:00+15ююв119086 2.7 100011
2 августа, пн
пн200:00+14юв2396100 0.1 99946
03:00+14юз2699100 3.9 999266
06:00+14ю2499100 1.8 1000151
09:00+16ююз2496100 3.2 1001391
12:00+17юз3588100 0.2 1002534
15:00+20ююз346893 0.3 10021009
18:00+19юз368379 1.2 1003540
21:00+15юз1194100 1.4 100311
3 августа, вт
вт300:00+15ююв2391100 0.0 100368
03:00+13юв2597100 0.0 1002114
06:00+14в2599100 2.1 1000166
09:00+14в61397100 7.4 997689
12:00+15вюв51197100 2.3 995675
15:00+17вюв31099100 2.8 993554
18:00+18ю4993100 1.6 992661
21:00+13з61396100 2.1 996880
4 августа, ср
ср400:00+13зюз51294100 0.0 999778
03:00+13зюз41092100 0.0 1000698
06:00+12зюз488998 0.0 1003500
09:00+12з4681100 0.0 1005741
12:00+13зсз4573100 0.0 1007910
15:00+12зсз4778100 0.1 1009730
18:00+11зсз3782100 0.0 1011742
21:00+10зсз3785100 0.1 1014669